DW6942 Weather Reports


time (UTC)temp
C
wind
direction
speed
KPH
gust
KPH
rain 1hr
cm
rain 24hr
cm
rain mn
cm
humidity
%
barometer
mb
20260507110057 -17 0.0 0.0 0.00 1.75 0.00 1016.1
20260507104549 -17 0.0 0.0 0.00 1.75 0.00 1015.7
20260507103046 -17 0.0 0.0 0.00 1.75 0.00 1015.8
20260507101541 -17 0.0 0.0 0.00 1.75 0.00 1015.2
20260507100040 17 141 0.0 0.0 0.00 1.75 0.00 84 1015.3
20260507094539 17 141 0.0 1.6 0.00 1.75 0.00 84 1015.0
20260507093037 17 304 0.0 0.0 0.00 1.75 0.00 83 1014.8
20260507091535 17 304 0.0 0.0 0.00 1.75 0.00 83 1015.0
20260507090037 17 304 0.0 0.0 0.00 1.75 0.00 83 1015.0
20260507084533 18 205 0.0 0.0 0.00 1.75 0.00 83 1014.9
20260507083033 18 304 0.0 0.0 0.00 1.75 0.00 83 1014.9
20260507081542 18 329 0.0 0.0 0.00 1.75 0.00 83 1014.7
20260507080030 18 279 0.0 0.0 0.00 1.75 0.00 82 1015.0
20260507074546 18 313 0.0 0.0 0.00 1.75 0.00 82 1015.2
20260507073028 18 327 0.0 1.6 0.00 1.75 0.00 82 1015.1
20260507071529 18 330 0.0 1.6 0.00 1.75 0.00 82 1015.0
20260507070026 18 334 0.0 1.6 0.00 1.75 0.00 82 1015.5
20260507064525 18 332 0.0 0.0 0.00 1.75 0.00 82 1015.4
20260507063027 18 333 0.0 0.0 0.00 1.75 0.00 81 1015.4
20260507061524 18 330 0.0 0.0 0.00 1.75 0.00 81 1015.4
20260507060023 18 340 0.0 0.0 0.00 1.75 0.00 81 1015.0
20260507054521 18 340 0.0 0.0 0.00 1.75 0.00 81 1015.2
20260507053019 18 307 0.0 0.0 0.00 1.75 0.00 81 1015.2
20260507051517 18 339 0.0 3.2 0.00 1.75 0.00 81 1015.1
20260507050024 18 326 0.0 1.6 0.00 1.75 0.00 81 1015.1
20260507044512 19 326 0.0 1.6 0.00 1.75 1.75 80 1015.1
20260507043011 19 326 0.0 1.6 0.00 1.75 1.75 80 1014.8
20260507041509 19 313 0.0 3.2 0.00 1.75 1.75 80 1014.7
20260507040007 20 308 0.0 0.0 0.00 1.75 1.75 80 1014.9
20260507034507 20 335 0.0 1.6 0.00 1.75 1.75 80 1014.9
20260507033008 20 335 0.0 3.2 0.00 1.75 1.75 80 1014.5
20260507031501 20 306 0.0 0.0 0.00 1.75 1.75 80 1014.4
20260507030100 20 311 0.0 0.0 0.00 1.75 1.75 80 1013.9
20260507024557 21 10 0.0 0.0 0.00 1.75 1.75 80 1013.4
20260507023103 21 310 0.0 0.0 0.00 1.75 1.75 81 1013.1
20260507021550 21 311 0.0 0.0 0.00 1.75 1.75 81 1012.9
20260507020049 21 311 0.0 0.0 0.00 1.75 1.75 80 1012.6
20260507014551 21 311 0.0 1.6 0.00 1.75 1.75 81 1012.3
20260507013045 21 333 0.0 1.6 0.00 1.75 1.75 80 1012.1
20260507011543 22 330 0.0 3.2 0.00 1.75 1.75 81 1011.8
20260507010042 22 323 0.0 3.2 0.00 1.75 1.75 81 1011.7
20260507004536 22 312 0.0 0.0 0.00 1.75 1.75 81 1011.4
20260507003038 23 325 0.0 1.6 0.00 1.75 1.75 81 1011.1
20260507001532 23 326 0.0 3.2 0.00 1.75 1.75 81 1010.8
20260507000036 23 332 0.0 3.2 0.00 1.75 1.75 81 1010.7
20260506234528 24 336 1.6 4.8 0.00 1.75 1.75 81 1010.7
20260506233027 27 323 0.0 0.0 0.00 1.75 1.75 84 1010.2
20260506231527 27 214 0.0 0.0 0.00 1.75 1.75 83 1009.9
20260506230027 27 214 0.0 0.0 0.00 1.75 1.75 83 1009.9
20260506224526 27 214 0.0 0.0 0.00 1.75 1.75 82 1009.9
20260506223025 27 214 0.0 0.0 0.00 1.75 1.75 81 1009.8
20260506221524 28 213 0.0 0.0 0.00 1.75 1.75 81 1009.7
20260506220025 28 214 0.0 0.0 0.00 1.75 1.75 80 1009.6
20260506214522 28 213 0.0 0.0 0.00 1.75 1.75 81 1009.7
20260506213021 28 224 0.0 0.0 0.00 1.75 1.75 81 1009.8
20260506211521 28 142 0.0 3.2 0.00 1.75 1.75 82 1009.7
20260506210017 27 240 0.0 1.6 0.00 1.75 1.75 82 1009.9
20260506204523 28 259 0.0 1.6 0.00 1.75 1.75 83 1010.0
20260506203017 27 204 0.0 0.0 0.00 1.75 1.75 86 1010.2
20260506201516 27 204 0.0 0.0 0.00 1.75 1.75 87 1010.2
20260506200011 27 204 0.0 0.0 0.00 1.75 1.75 87 1010.6
20260506194520 27 204 0.0 0.0 0.00 1.75 1.75 86 1010.6
20260506193010 26 204 0.0 0.0 0.00 1.75 1.75 87 1010.6
20260506191511 26 204 0.0 0.0 0.00 1.75 1.75 87 1010.7
20260506190008 26 204 0.0 0.0 0.00 1.75 1.75 88 1010.9
20260506184507 25 204 0.0 0.0 0.00 1.75 1.75 88 1011.0
20260506183006 25 204 0.0 0.0 1.19 1.75 1.75 87 1011.3
20260506181505 25 204 0.0 0.0 1.75 1.75 1.75 86 1011.7
20260506180005 25 204 0.0 0.0 1.75 1.75 1.75 85 1012.0
20260506174504 25 204 0.0 0.0 1.75 1.75 1.75 84 1012.2
20260506173003 26 245 0.0 1.6 0.51 0.51 0.51 82 1012.6
20260506171504 27 251 0.0 0.0 0.00 0.00 0.00 81 1012.4
20260506170001 26 251 0.0 1.6 0.00 0.00 0.00 80 1012.6
20260506164500 27 134 0.0 1.6 0.00 0.00 0.00 80 1012.6
20260506163119 26 137 0.0 3.2 0.00 0.00 0.00 81 1012.4
20260506161611 26 125 0.0 3.2 0.00 0.00 0.00 81 1012.1
20260506160054 26 135 0.0 3.2 0.00 0.00 0.00 82 1012.0
20260506154609 26 217 0.0 6.4 0.00 0.00 0.00 82 1011.9
20260506153102 26 229 0.0 3.2 0.00 0.00 0.00 82 1011.9
20260506151555 26 130 0.0 0.0 0.00 0.00 0.00 83 1012.0
20260506150047 25 128 0.0 3.2 0.00 0.00 0.00 84 1011.6
20260506144545 -17 0.0 0.0 0.00 0.00 0.00 1011.5
20260506143048 -17 0.0 0.0 0.00 0.00 0.00 1011.2
20260506141537 -17 0.0 0.0 0.00 0.00 0.00 1011.2
20260506140031 -17 0.0 0.0 0.00 0.00 0.00 1011.2
20260506134526 -17 0.0 0.0 0.00 0.00 0.00 1011.5
20260506133023 -17 0.0 0.0 0.00 0.00 0.00 1011.6
20260506131520 -17 0.0 0.0 0.00 0.00 0.00 1011.5
20260506130014 -17 0.0 0.0 0.00 0.00 0.00 1011.5
20260506124509 -17 0.0 0.0 0.00 0.00 0.00 1011.3
20260506123005 -17 0.0 0.0 0.00 0.00 0.00 1011.2
20260506121600 -17 0.0 0.0 0.00 0.00 0.00 1011.1
20260506120059 -17 0.0 0.0 0.00 0.00 0.00 1011.1
20260506114559 -17 0.0 0.0 0.00 0.00 0.00 1010.8
20260506113047 -17 0.0 0.0 0.00 0.00 0.00 1010.9
20260506111543 -17 0.0 0.0 0.00 0.00 0.00 1010.7